CZ-2F DEB, 67720

Orbit data source: Space-Track

CZ-2F DEB, 67720 is space debris in LEO originally from a launch on Sat, 07 Feb 2026 UTC launched from the Jiuquan Satellite Launch Center, China (JSC). Debris objects in space refer to the collection of defunct objects orbiting the Earth. Examples of debris include non-operational satellites, rocket bodies, and fragments generated from explosions, collisions, or faulty payload assembly.

Loading next visibility...
Identifier
67720, 2026-024G
Orbit
LEO
Country
Flag of CNCN / PRC
Related business
Manufacturer
CALT?
Mission
Spacecraft
Bus & Motor
Unknown
Mass
1 kg wet, 1 kg dry
Launch date (UTC)
2026-02-07 (2 months ago)
Launch vehicle
Unknown
Launch site
Jiuquan Satellite Launch Center, China (JSC)
Object type
Payload
Rocket body
Debris
Shape & HBR
Unknown shape, 1.1 m
Radar Cross Section
RCS unknown

Expand to show TLE details & history
Last TLE update: 11 hours ago

TLE from 11 hours ago
0 CZ-2F DEB
1 67720U 26024G   26100.37914786  .00179575  00000-0  37683-2 0  9993
2 67720  49.8275 229.6805 0280426  35.3179 326.5995 15.12092366  9330
Epoch: 2026-04-10T09:05Z
TLE epoch observation values (Epoch: 2026-04-10T09:05:58.375Z)
Latitude
-0.00004°
Longitude
-105.42641°
Altitude
370.341 km
Speed
7.777 km/s
True Right ascension
15h 18m 43s
True Declination
0° 00' 00"
Sunlit
Object was in full shadow at epoch
Visualization orbit readout
Latitude
Unknown
Longitude
Unknown
Altitude
Unknown
Speed
Unknown
Apparent Right ascension
Unknown
Apparent Declination
Unknown
Sunlit
N/A
Visualization observer readout
Local Sidereal Time
02:48:27
Azimuth
Unknown
Elevation
Unknown
Doppler factor
Unknown
Orbital elements
Apogee altitude
724.357 km
Perigee altitude
336.878 km
Semi-major axis
6,908.754 km
Eccentricity
0.02804
Inclination
49.8275°
RAAN
229.6805°
Arg. of periapsis
35.3179°
True anomaly
324.77758°
Mean anomaly
326.5995°
Eccentric anomaly
325.69393°
Mean motion
3.77958 °/min
Orbital period
95.25 mins
BSTAR
0.0037683
Loading maneuver chart data...
Computing Atmospheric mass density...
Loading historical data...
Loading historical data...
Loading historical data...
Loading historical data...
Loading historical data...
Loading historical data...
Loading historical data...

Documentation

Showing up to 5 results
|